Flag Weather past 2 weeks in Niamey, Niger

Now
91 °F

Clear.


Feels Like: 87 °F
Forecast: 69 / 96 °F
Wind: 17 mph from Southeast

Location: Niamey-Aero

Current Time: Nov 23, 2014 at 12:34:37 PM

Latest Report: Nov 23, 2014 at 12:00 PM


Visibility: 4 mi

Pressure: 29.98 "Hg

Humidity: 10%

Dew point: 27 °F

Location of NiameyLocation

Historic Weather in Niamey — Graph

°F

Niamey temperature yesterday

Maximum temperature yesterday: 97 °F (at 3:00 PM)
Minimum temperature yesterday: 72 °F (at 6:00 AM)
Average temperature yesterday: 84 °F

Past Weeks' High & Low Weather Summary

 TemperatureHumidityPressure
High102 °F (Nov 9, 2:00 PM)57% (Nov 12, 6:00 AM)30.01 "Hg (Nov 12, 6:00 AM)
Low68 °F (Nov 21, 7:00 AM)6% (Nov 16, 3:00 PM)29.71 "Hg (Nov 10, 4:00 PM)
Average87 °F19%29.85 "Hg
* Reported Nov 8 11:00 AM — Nov 23 11:00 AM, Niamey, Weather by CustomWeather, © 2014

Note: Actual official high and low records may vary slightly from our data, if they occured in-between our weather recording intervals... More about our weather records

Advertising

Niamey weather history for previous 24 hours

 ConditionsComfort  
Time TempWeatherWind HumidityBarometerVisibility
11:00 AM
Nov 23
90 °FClear.18 mph12%30.01 "Hg4 mi
10:00 AM86 °FClear.20 mph12%30.01 "Hg4 mi
9:00 AM81 °FClear.13 mph17%30.01 "Hg4 mi
8:00 AM75 °FClear.7 mph22%29.98 "Hg4 mi
7:00 AM68 °FClear.5 mph33%29.98 "Hg4 mi
6:00 AM70 °FClear.5 mph29%29.95 "Hg5 mi
5:00 AM70 °FClear.3 mph31%29.95 "Hg10 mi
4:00 AM72 °FClear.2 mph29%29.92 "Hg10 mi
3:00 AM73 °FClear.1 mph25%29.92 "Hg10 mi
2:00 AM75 °FClear.6 mph22%29.92 "Hg10 mi
1:00 AM75 °FClear.5 mph22%29.92 "Hg10 mi
12:00 AM77 °FClear.5 mph21%29.92 "Hg10 mi
11:00 PM
Nov 22
79 °FClear.6 mph20%29.95 "Hg5 mi
10:00 PM81 °FClear.5 mph17%29.92 "Hg5 mi
9:00 PM82 °FClear.5 mph16%29.92 "Hg4 mi
8:00 PM84 °FClear.5 mph15%29.92 "Hg4 mi
7:00 PM88 °FClear.5 mph13%29.89 "Hg4 mi
6:00 PM93 °FClear.9 mph9%29.89 "Hg4 mi
5:00 PM95 °FClear.9 mph9%29.86 "Hg5 mi
4:00 PM97 °FClear.10 mph9%29.86 "Hg5 mi
3:00 PM97 °FClear.12 mph9%29.86 "Hg5 mi
2:00 PM95 °FClear.14 mph9%29.92 "Hg5 mi
1:00 PM95 °FClear.16 mph10%29.95 "Hg4 mi
12:00 PM93 °FClear.16 mph11%29.98 "Hg4 mi
Weather by CustomWeather, © 2014

See weather overviewHow to use our weather pages